ICEYE-X8

导读

ICEYE-X8是芬兰ICEYE公司研制的冰眼系列合成孔径雷达遥感卫星,于2021年1月24日由SpaceX猎鹰9号火箭在卡纳维拉尔角发射入轨,运行于约580公里近极地轨道。它搭载了X波段SAR传感器,最高分辨率可达25厘米,可不受天气光照影响对地成像,可支持海冰观测、灾害监测、资源勘探等应用,助力全球高频次地球观测服务。

基本信息
目录编号:
47510
目录名称:
ICEYE-X8
国际标识:
2021-006DB
轨道中心:
EARTH
卫星名称:
ICEYE-X8
卫星全名:
--
卫星状态:
已陨落 最后检测时间 2025-11-14
发射日期:
2021-01-24 UTC
国别 :
(FI)
星等 :
--
轨道信息
数据来源 国际轨道数据
星历时间: 2025-11-14T18:06:59+0800
轨道信息已过期300天
半长轴: 6536.269km
偏心率: 0.0010203
轨道倾角: 97.220°
近地点辐角 285.669°
升交点赤经 29.253°
平近点角 74.349°
近地点: 151.465km
远地点: 164.803km
周期: 87.651分钟
每日圈数: 16.428881
详细信息
使用方式:
暂无
与全量物体交会距离演化趋势
与全量物体交会风险概率演化趋势